This is the latest recevied weather packets stored in our database for station/object F4ELU-13. If no packets are shown the sender has not sent any weather packets the latest 10 day(s).
| Time | Temp. | Humidity | Pressure | Rain* | Wind** | Luminosity | Snow |
|---|---|---|---|---|---|---|---|
| 1777883763 | 11.67° C | 97% | 1013.1 hPa | 0 mm | - | - | - |
| 1777883223 | 11.67° C | 99% | 1013.1 hPa | 0 mm | - | - | - |
| 1777882684 | 11.67° C | 99% | 1013 hPa | 0 mm | - | - | - |
| 1777882143 | 11.11° C | 99% | 1013.1 hPa | 0 mm | - | - | - |
| 1777881603 | 11.11° C | 99% | 1013.1 hPa | 0 mm | - | - | - |
| 1777881243 | 10.56° C | 99% | 1013.2 hPa | 0 mm | - | - | - |
| 1777880703 | 10.56° C | 99% | 1013.2 hPa | 0.25 mm | - | - | - |
| 1777880163 | 10.56° C | 99% | 1013.3 hPa | 0.25 mm | - | - | - |
| 1777879623 | 10.56° C | 99% | 1013.4 hPa | 0.51 mm | - | - | - |
| 1777879083 | 10.56° C | 99% | 1013.3 hPa | 0.51 mm | - | - | - |
| 1777878543 | 10.56° C | 99% | 1013.3 hPa | 1.27 mm | - | - | - |
| 1777878003 | 10.56° C | 99% | 1013.2 hPa | 1.27 mm | - | - | - |
| 1777877643 | 10.56° C | 99% | 1013.2 hPa | 1.27 mm | - | - | - |
| 1777877103 | 10.56° C | 99% | 1013.1 hPa | 1.02 mm | - | - | - |
| 1777876563 | 10.56° C | 99% | 1013.3 hPa | 1.27 mm | - | - | - |
| 1777876023 | 10.56° C | 99% | 1013.1 hPa | 1.02 mm | - | - | - |
| 1777875483 | 10.56° C | 99% | 1013 hPa | 1.02 mm | - | - | - |
| 1777874943 | 10.56° C | 99% | 1013.1 hPa | 0.25 mm | - | - | - |
| 1777874403 | 10.56° C | 99% | 1013 hPa | 0.25 mm | - | - | - |
| 1777874043 | 10.56° C | 99% | 1012.9 hPa | 0.25 mm | - | - | - |
| 1777873503 | 10.56° C | 99% | 1012.8 hPa | 0.25 mm | - | - | - |
| 1777872963 | 10.56° C | 99% | 1013 hPa | 0.25 mm | - | - | - |
| 1777872423 | 10° C | 99% | 1012.9 hPa | 0.25 mm | - | - | - |
| 1777871883 | 10° C | 99% | 1012.8 hPa | 0.25 mm | - | - | - |
| 1777871343 | 10° C | 99% | 1012.8 hPa | 0.51 mm | - | - | - |
* Rain latest hour (hover to see other rain measurements)
** Current wind speed in m/s (hover to see current wind gust speed)